• In Uzbekistan
  • List of Countries
  • For 7 days
  • Water Temperature
  • Satellite Maps
  • Weather Map
  • Weather Widgets
  • user-avatar
    Login

    Hourly Weather Sianki

    Today, 18 December, Tuesday

    Time Temperature Precipitation Wind Pressure Humidity
    00:00 -6°C° 0 mm 1 mps 690 mmHg 90%
    01:00 -7°C° 0 mm 1 mps 691 mmHg 90%
    02:00 -7°C° 0 mm 1 mps 691 mmHg 91%
    03:00 -7°C° 0 mm 1 mps 691 mmHg 91%
    04:00 -7°C° 0 mm 1 mps 691 mmHg 91%
    05:00 -7°C° 0 mm 1 mps 691 mmHg 90%
    06:00 -7°C° 0 mm 1 mps 691 mmHg 91%
    07:00 -7°C° 0 mm 1 mps 692 mmHg 91%
    08:00 -7°C° 0 mm 1 mps 692 mmHg 91%
    09:00 -6°C° 0 mm 1 mps 692 mmHg 88%
    10:00 -4°C° 0 mm 1 mps 692 mmHg 86%
    11:00 -3°C° 0 mm 1 mps 693 mmHg 83%
    12:00 -3°C° 0 mm 1 mps 693 mmHg 82%
    13:00 -3°C° 0 mm 1 mps 693 mmHg 82%
    14:00 -2°C° 0 mm 1 mps 693 mmHg 81%
    15:00 -3°C° 0 mm 1 mps 693 mmHg 84%
    16:00 -4°C° 0 mm 1 mps 693 mmHg 87%
    17:00 -6°C° 0 mm 1 mps 693 mmHg 90%
    18:00 -7°C° 0 mm 1 mps 693 mmHg 91%
    19:00 -7°C° 0 mm 1 mps 693 mmHg 91%
    20:00 -7°C° 0 mm 1 mps 693 mmHg 92%
    21:00 -8°C° 0 mm 1 mps 693 mmHg 92%
    22:00 -8°C° 0 mm 1 mps 693 mmHg 92%
    23:00 -8°C° 0 mm 1 mps 693 mmHg 92%

    Tomorrow, 19 December, Wednesday

    Time Temperature Precipitation Wind Pressure Humidity
    00:00 -9°C° 0 mm 1 mps 693 mmHg 92%
    01:00 -9°C° 0 mm 1 mps 693 mmHg 91%
    02:00 -9°C° 0 mm 1 mps 693 mmHg 91%
    03:00 -9°C° 0 mm 1 mps 693 mmHg 90%
    04:00 -9°C° 0 mm 1 mps 692 mmHg 89%
    05:00 -9°C° 0 mm 1 mps 692 mmHg 89%
    06:00 -10°C° 0 mm 1 mps 692 mmHg 88%
    07:00 -10°C° 0 mm 0 mps 692 mmHg 86%
    08:00 -10°C° 0 mm 0 mps 692 mmHg 85%
    09:00 -8°C° 0 mm 1 mps 693 mmHg 82%
    10:00 -7°C° 0 mm 1 mps 693 mmHg 78%
    11:00 -6°C° 0 mm 1 mps 693 mmHg 74%
    12:00 -4°C° 0 mm 1 mps 693 mmHg 74%
    13:00 -4°C° 0 mm 1 mps 693 mmHg 74%
    14:00 -3°C° 0 mm 1 mps 693 mmHg 74%
    15:00 -4°C° 0 mm 1 mps 692 mmHg 79%
    16:00 -7°C° 0 mm 1 mps 692 mmHg 84%
    17:00 -8°C° 0 mm 1 mps 692 mmHg 90%
    18:00 -8°C° 0 mm 1 mps 692 mmHg 88%
    19:00 -8°C° 0 mm 1 mps 691 mmHg 87%
    20:00 -9°C° 0 mm 1 mps 691 mmHg 86%
    21:00 -9°C° 0 mm 1 mps 691 mmHg 84%
    22:00 -9°C° 0 mm 1 mps 691 mmHg 83%
    23:00 -9°C° 0 mm 1 mps 691 mmHg 81%

    Day after tomorrow, 20 December, Thursday

    Time Temperature Precipitation Wind Pressure Humidity
    00:00 -9°C° 0 mm 1 mps 691 mmHg 81%
    01:00 -9°C° 0 mm 1 mps 690 mmHg 80%
    02:00 -10°C° 0 mm 2 mps 690 mmHg 80%
    03:00 -9°C° 0 mm 2 mps 690 mmHg 79%
    04:00 -9°C° 0 mm 2 mps 690 mmHg 78%
    05:00 -9°C° 0 mm 2 mps 690 mmHg 77%
    06:00 -9°C° 0 mm 2 mps 690 mmHg 76%
    07:00 -9°C° 0 mm 2 mps 690 mmHg 75%
    08:00 -9°C° 0 mm 2 mps 690 mmHg 74%
    09:00 -8°C° 0 mm 2 mps 690 mmHg 71%
    10:00 -6°C° 0 mm 2 mps 690 mmHg 69%
    11:00 -5°C° 0 mm 2 mps 690 mmHg 67%
    12:00 -5°C° 0 mm 2 mps 690 mmHg 68%
    13:00 -4°C° 0 mm 2 mps 690 mmHg 69%
    14:00 -3°C° 0 mm 2 mps 689 mmHg 70%
    15:00 -4°C° 0 mm 2 mps 689 mmHg 73%
    16:00 -5°C° 0 mm 2 mps 689 mmHg 76%
    17:00 -6°C° 0 mm 2 mps 689 mmHg 79%
    18:00 -6°C° 0 mm 2 mps 689 mmHg 79%
    19:00 -6°C° 0 mm 2 mps 689 mmHg 80%
    20:00 -6°C° 0 mm 2 mps 689 mmHg 81%
    21:00 -6°C° 0.1 mm 2 mps 689 mmHg 83%
    22:00 -6°C° 0.1 mm 2 mps 689 mmHg 85%
    23:00 -6°C° 0.1 mm 2 mps 689 mmHg 87%

    21 December, Friday

    Time Temperature Precipitation Wind Pressure Humidity
    00:00 -6°C° 0.2 mm 2 mps 689 mmHg 88%
    01:00 -6°C° 0.2 mm 2 mps 689 mmHg 90%
    02:00 -6°C° 0.2 mm 2 mps 689 mmHg 92%
    03:00 -6°C° 0.1 mm 2 mps 689 mmHg 92%
    04:00 -5°C° 0.1 mm 2 mps 689 mmHg 92%
    05:00 -5°C° 0.1 mm 2 mps 689 mmHg 93%
    06:00 -5°C° 0.1 mm 2 mps 689 mmHg 92%
    07:00 -5°C° 0.1 mm 2 mps 689 mmHg 92%
    08:00 -5°C° 0.1 mm 2 mps 689 mmHg 92%
    09:00 -5°C° 0.3 mm 2 mps 689 mmHg 92%
    10:00 -5°C° 0.3 mm 2 mps 689 mmHg 91%
    11:00 -5°C° 0.3 mm 2 mps 689 mmHg 91%
    12:00 -5°C° 0.4 mm 2 mps 689 mmHg 91%
    13:00 -5°C° 0.4 mm 2 mps 689 mmHg 91%
    14:00 -5°C° 0.4 mm 2 mps 688 mmHg 91%
    15:00 -5°C° 0.1 mm 2 mps 688 mmHg 91%
    16:00 -5°C° 0.1 mm 2 mps 688 mmHg 92%
    17:00 -5°C° 0.1 mm 2 mps 688 mmHg 92%
    18:00 -6°C° 0 mm 3 mps 688 mmHg 92%
    19:00 -6°C° 0 mm 3 mps 688 mmHg 91%
    20:00 -7°C° 0 mm 4 mps 688 mmHg 91%
    21:00 -5°C° 0.2 mm 4 mps 687 mmHg 90%
    22:00 -5°C° 0.2 mm 4 mps 687 mmHg 90%
    23:00 -5°C° 0.2 mm 4 mps 687 mmHg 90%

    22 December, Saturday

    Time Temperature Precipitation Wind Pressure Humidity
    00:00 -6°C° 0.7 mm 5 mps 686 mmHg 89%
    01:00 -6°C° 0.7 mm 5 mps 685 mmHg 89%
    02:00 -5°C° 0.7 mm 6 mps 685 mmHg 89%
    03:00 -5°C° 0.7 mm 6 mps 684 mmHg 89%
    04:00 -5°C° 0.7 mm 6 mps 684 mmHg 90%
    05:00 -5°C° 0.7 mm 6 mps 683 mmHg 90%
    06:00 -5°C° 0.2 mm 5 mps 684 mmHg 91%
    07:00 -5°C° 0.2 mm 5 mps 684 mmHg 91%
    08:00 -4°C° 0.2 mm 4 mps 684 mmHg 91%
    09:00 -4°C° 0.1 mm 4 mps 684 mmHg 92%
    10:00 -4°C° 0.1 mm 4 mps 685 mmHg 92%
    11:00 -3°C° 0.1 mm 4 mps 685 mmHg 93%
    12:00 -3°C° 0 mm 4 mps 685 mmHg 92%
    13:00 -3°C° 0 mm 4 mps 685 mmHg 92%
    14:00 -2°C° 0 mm 4 mps 685 mmHg 92%
    15:00 -3°C° 0 mm 4 mps 685 mmHg 91%
    16:00 -3°C° 0 mm 4 mps 685 mmHg 91%
    17:00 -3°C° 0 mm 4 mps 685 mmHg 91%
    18:00 -3°C° 0.1 mm 4 mps 685 mmHg 92%
    19:00 -2°C° 0.1 mm 5 mps 684 mmHg 92%
    20:00 -2°C° 0.1 mm 5 mps 684 mmHg 92%
    21:00 -2°C° 1 mm 5 mps 684 mmHg 92%
    22:00 -2°C° 1 mm 5 mps 684 mmHg 93%
    23:00 -2°C° 1 mm 5 mps 683 mmHg 93%

    23 December, Sunday

    Time Temperature Precipitation Wind Pressure Humidity
    00:00 -2°C° 0.7 mm 4 mps 683 mmHg 93%
    01:00 -2°C° 0.7 mm 4 mps 683 mmHg 93%
    02:00 -2°C° 0.7 mm 4 mps 683 mmHg 94%
    03:00 -2°C° 0.3 mm 4 mps 683 mmHg 94%
    04:00 -1°C° 0.3 mm 3 mps 683 mmHg 94%
    05:00 -1°C° 0.3 mm 3 mps 683 mmHg 95%
    06:00 -2°C° 0.3 mm 3 mps 683 mmHg 94%
    07:00 -2°C° 0.3 mm 3 mps 684 mmHg 94%
    08:00 -2°C° 0.3 mm 3 mps 684 mmHg 94%
    09:00 -2°C° 0.1 mm 3 mps 685 mmHg 94%
    10:00 -2°C° 0.1 mm 3 mps 685 mmHg 94%
    11:00 -1°C° 0.1 mm 3 mps 686 mmHg 94%
    12:00 -1°C° 0.1 mm 3 mps 686 mmHg 94%
    13:00 -1°C° 0.1 mm 3 mps 686 mmHg 93%
    14:00 -1°C° 0.1 mm 3 mps 686 mmHg 93%
    15:00 -2°C° 0.1 mm 3 mps 686 mmHg 93%
    16:00 -2°C° 0.1 mm 3 mps 687 mmHg 93%
    17:00 -2°C° 0.1 mm 3 mps 687 mmHg 92%
    18:00 -2°C° 0.2 mm 3 mps 687 mmHg 92%
    19:00 -2°C° 0.2 mm 3 mps 687 mmHg 92%
    20:00 -4°C° 0.2 mm 3 mps 687 mmHg 92%
    21:00 -4°C° 0.4 mm 3 mps 687 mmHg 92%
    22:00 -4°C° 0.4 mm 3 mps 687 mmHg 92%
    23:00 -4°C° 0.4 mm 3 mps 688 mmHg 92%
    Show more